Regional Weather Roundup
Issued by NWS

Home | Current Version | Previous Version | Graphics & Text | Print | Product List | Glossary On
Versions: 1 2 3 4 5 6 7 8 9 10 11 12 13 14 15 16 17 18 19 20 21 22 23 24 25 26 27 28 29 30 31 32 33 34 35 36 37 38 39 40 41 42 43 44 45 46 47 48 49 50
000
ASUS43 KLSX 050257
RWRMO

WEATHER SUMMARY FOR MISSOURI
NATIONAL WEATHER SERVICE SPRINGFIELD MO
900 PM CST SUN DEC 04 2016

NOTE: "FAIR" INDICATES FEW OR NO CLOUDS BELOW 12,000 FEET WITH NO
       SIGNIFICANT WEATHER AND/OR OBSTRUCTIONS TO VISIBILITY.
       CURRENT SKY AND/OR WEATHER CONDITIONS ARE NOT AVAILABLE FOR
       CHILLICOTHE AND FARMINGTON.

MOZ001>031-035>038-043-044-053-054-050400-
...NORTHERN AND WESTERN MISSOURI...

CITY           SKY/WX    TMP DP  RH WIND       PRES   REMARKS
KANSAS CTY INT CLEAR     30  28  92 S7        29.99S WCI  23
LEE`S SUMMIT   CLEAR     36  34  92 SW6       30.01R
ST JOSEPH      CLEAR     31  30  96 S7        29.99S WCI  24
CHILLICOTHE      N/A     31  29  92 CALM      30.00S

$$
MOZ066>068-077>081-088>096-101>105-050400-
...SOUTHWEST MISSOURI...

CITY           SKY/WX    TMP DP  RH WIND       PRES   REMARKS
SPRINGFIELD    CLEAR     30  29  96 CALM      30.01S
JOPLIN         CLEAR     31  31 100 CALM      30.02F
BRANSON        PTCLDY    37  36  93 CALM      30.03S

$$
MOZ032>034-039>042-045>050-055>058-069>072-050400-
...CENTRAL MISSOURI...

CITY           SKY/WX    TMP DP  RH WIND       PRES   REMARKS
COLUMBIA       NOT AVBL
JEFFERSON CITY PTCLDY    31  30  96 CALM      30.03R
ROLLA          CLEAR     34  33  96 W6        30.00S WCI  29
SEDALIA        CLEAR     37  34  89 SW7       30.02S
WARRENSBURG    CLEAR     36  34  93 SW5       30.01S
OSAGE BEACH    CLEAR     32  32 100 CALM      30.02F FOG

$$
MOZ051-052-059>065-050400-
...EAST CENTRAL MISSOURI...

CITY           SKY/WX    TMP DP  RH WIND       PRES   REMARKS
ST LOUIS INTL  CLOUDY    40  34  79 W12       30.03R

$$
MOZ072>076-082>087-097>100-106>115-050400-
...SOUTH CENTRAL AND SOUTHEAST MISSOURI...

CITY           SKY/WX    TMP DP  RH WIND       PRES   REMARKS
CAPE GIRARDEAU CLOUDY    42  37  82 N3        30.03S
POPLAR BLUFF   MOCLDY    42  40  92 CALM      30.04R
WEST PLAINS    CLOUDY    35  33  92 CALM      30.03S

$$



USA.gov is the U.S. government's official web portal to all federal, state and local government web resources and services.